Regional Weather Roundup
Issued by NWS New Orleans/Baton Rouge, LA

Home | Current Version | Previous Version | Text Only | Print | Product List | Glossary On
Versions: 1 2 3 4 5 6 7 8 9 10 11 12 13 14 15 16 17 18 19 20 21 22 23 24 25 26 27 28 29 30 31 32 33 34 35 36 37 38 39 40 41 42 43 44 45 46 47 48 49 50
513
ASUS44 KLIX 210105
RWRLIX
NEW ORLEANS REGIONAL WEATHER ROUNDUP
NATIONAL WEATHER SERVICE NEW ORLEANS LA
800 PM CDT SAT SEP 20 2014

NOTE: "FAIR" INDICATES FEW OR NO CLOUDS BELOW 12,000 FEET WITH NO
      SIGNIFICANT WEATHER AND/OR OBSTRUCTIONS TO VISIBILITY.
      SKY/WX - SKY CONDITION AND SIGNIFICANT WEATHER.
      TMP - AIR TEMPERATURE.     DP    - DEWPOINT TEMPERATURE.
      RH  - RELATIVE HUMIDITY.   PRES  - PRESSURE.
      HI  - HEAT INDEX.          WCI   - WIND CHILL INDEX.

*  THESE STATIONS ARE NOT NWS OR FAA STATIONS AND ARE NOT UNDER
   NWS QUALITY CONTROL.

LAZ038-040-048-061>063-065>067-069-210200-
SOUTHEAST LOUISIANA

CITY           SKY/WX    TMP DP  RH WIND       PRES   REMARKS
N.O. AUDUBON     N/A     81  70  69 MISG        N/A
N.O. INTL ARPT PTCLDY    81  68  64 E7        29.94S
N.O. LAKEFRONT CLEAR     81  71  71 E9        29.95R
N.O. DOWNTOWN*   N/A     82  66  57 SE3       29.95S
SLIDELL        CLEAR     77  71  82 E3        29.95R
BATON ROUGE    CLEAR     76  71  85 NE3       29.94S
BOOTHVILLE     PTCLDY    80  72  76 E13G21    29.95R
BELLE CHASSE   PTCLDY    77  69  76 E5        29.94R
BOGALUSA*        N/A     76  70  81 CALM      29.97R
GALLIANO*      NOT AVBL
NEW ROADS*       N/A     77  70  78 E3        29.94S
GONZALES*        N/A     75  75 100 CALM      29.94R
HAMMOND*       PTCLDY    79  70  73 CALM      29.97R
HOUMA*         CLEAR     76  61  59 E3        29.94R
PORT FOURCHON* PTCLDY    81  72  74 E14       29.96S

$$

MSZ070-080>082-210200-
SOUTHERN MISSISSIPPI

CITY           SKY/WX    TMP DP  RH WIND       PRES   REMARKS
MCCOMB         CLEAR     80  68  66 CALM      29.97R
GULFPORT       CLEAR     80  67  64 E9        29.95R
BILOXI         CLEAR     79  68  69 E8        29.96R
PASCAGOULA     CLEAR     72  68  87 CALM      29.97R
STENNIS ARPT*  CLEAR     79  70  73 CALM      29.96R

$$

COASTAL OBSERVATIONS
LAKE AND NEARSHORE STATIONS

STATION/POSITION TIME  TEMP    WIND        PRES    WAVE
                       AIR SEA DIR/SP/G            HT/PER
                 (UTC) (F)     (DEG/KT/KT) (MB)    (FT/S)
PASCAGOULA       0100   80      60/ 10/ 12 1014.2
WAVELAND YACHT   0100   82      80/  8/ 11 1013.5
GRAND ISLE       0100   81 83   80/ 12/ 16 1014.2
SOUTHWEST PASS   0100   81 90   70/ 20/ 23 1013.8
NEW CANAL        0100   81 81  130/  1/  4 1014.4
SHELL BEACH      0100   80 79  100/ 10/ 12 1013.9

OFFSHORE STATIONS

STATION/POSITION TIME  TEMP    WIND        PRES    WAVE
                       AIR SEA DIR/SP/G            HT/PER
                 (UTC) (F)     (DEG/KT/KT) (MB)    (FT/S)
64 S DAUPHIN ISL 0039   80 84   70/ 17/ 19 1014.1    5/ 7

$$




USA.gov is the U.S. government's official web portal to all federal, state and local government web resources and services.